星链-35009 (STARLINK-35009)

导读

STARLINK-35009是美国SpaceX公司星链计划的卫星,于2025年9月3日发射升空。作为星链星座的组成部分,它旨在为全球提供低延迟、高速率的宽带互联网服务,尤其覆盖偏远地区等网络基础设施薄弱区域。星链通过近地轨道卫星组网,持续拓展规模,该卫星加入后进一步完善了星座服务能力,推动全球互联网络覆盖提升。

基本信息
目录编号:
65449
目录名称:
STARLINK-35009
国际标识:
2025-194R
轨道中心:
EARTH
卫星名称:
星链-35009
卫星全名:
星链-35009 (STARLINK-35009)
卫星状态:
在轨 (已飞行366 天)
发射日期:
2025-09-03 UTC
国别 :
美国 (US)
星等 :
--
轨道信息
数据来源 国际轨道数据 AOE轨道数据
星历时间 2026-09-04T09:13:23+0800
12小时前
查看轨道信息
2026-09-03T04:00:00+0800
1天前
查看轨道信息
半长轴 6843.67km 6843.747km
偏心率 0.0000981 0.0001578
轨道倾角 97.286° 97.287°
近地点辐角 86.021° 86.422°
升交点赤经 96.885° 95.684°
平近点角 274.114° 36.323°
近地点 464.861km 464.53km
远地点 466.205km 466.69km
周期 93.906分钟 93.908分钟
每日圈数 15.334487 15.334226
详细信息
固有亮度:
5
最大亮度:
2.5
卫星平台:
Starlink V1.0
覆盖范围:
全球
运营商:
太空探索技术公司
运营商所在国:
美国
制造商(研发单位):
太空探索技术公司
制造商所在国:
美国
使用方式:
暂无
卫星简介
Starlink 计划是 SpaceX 推出的全球卫星互联网项目,通过发射低轨道卫星,为全球尤其是偏远地区提供高速、低延迟的互联网服务。自 2019 年起,Starlink 已部署数千颗卫星,旨在缩小全球数字鸿沟,推动互联网普及。该项目还为军事、航空等行业提供通信支持,带来广泛经济效益。
2D轨道图
3D轨道图
轨道高度分析图
轨道倾角分析图
轨道综合分析图
查看轨道综合分析图
交会数据列表
事件ID 空间交会对象 最接近时刻(TCA) 交会距离 交会风险概率(CRP) 交会风险指数(CRI) 操作
CDM_260906-030804-835506-544921
2026-09-06T
03:08:28+0000
2.757 km
极远距离
1.448271E-6 低风险 0.38
CDM_260903-055205-248806-544921
2026-09-03T
05:52:08+0000
2.996 km
极远距离
1.255551E-6 低风险 0.37
CDM_260904-085204-784506-544921
2026-09-04T
08:52:00+0000
2.744 km
极远距离
1.065995E-6 低风险 0.36